Orbital Elements at Epoch 2459000.5 (2020-May-31.0) TDB
Reference: JPL 17 (heliocentric ecliptic J2000)
Element | Value | Uncertainty (1-sigma) | Units |
e | .1868749930914171 | 5.7021e-08 | |
a | 2.570499646447312 | 1.4411e-08 | au |
q | 2.090137542775981 | 1.5093e-07 | au |
i | 4.561718687202293 | 6.9533e-06 | deg |
node | 28.34272105984074 | 5.45e-05 | deg |
peri | 73.23595706971275 | 5.955e-05 | deg |
M | 98.65813454756812 | 2.2996e-05 | deg |
tp | 2458587.970369057074 (2019-Apr-14.47036906) | 9.3981e-05 | TDB |
period | 1505.305850556589 4.12 | 1.2659e-05 3.466e-08 | d yr |
n | .2391540562118253 | 2.0112e-09 | deg/d |
Q | 3.050861750118643 | 1.7104e-08 | au |
|
| | Orbit Determination Parameters
Additional Information
|